{"data":{"norad_id":56900,"intl_designator":"2023-083AA","name":"STARLINK-6207","alt_names":[],"object_type":"PAYLOAD","status":"ACTIVE","operator":null,"country":"US","launch_date":"2023-06-12","launch_site_code":"AFETR","launch_vehicle":null,"mission":null,"orbit_class":"UNKNOWN","rcs_meters":null,"size_class":null,"mass_kg":null,"dimensions":null,"purposes":["comms"],"wikipedia_slug":null,"has_3d_model":false,"image_url":null,"decayed_at":null,"tle_current":{"epoch":"2026-09-20T20:44:07.597248Z","epoch_age_seconds":86556,"freshness":"FRESH","line1":"1 56900U 23083AA  26263.86397682 -.00000640  00000+0 -13721-4 0  9993","line2":"2 56900  43.0052  48.7803 0001852 288.6640  71.4010 15.27572164181616","mean_motion":15.27572164,"eccentricity":0.0001852,"inclination_deg":43.0052,"raan_deg":48.7803,"arg_perigee_deg":288.664,"mean_anomaly_deg":71.401,"bstar":-1.3721e-5,"rev_number":18161,"period_min":94.267232274599,"perigee_km":481.80186393244,"apogee_km":484.34325595344,"semimajor_km":6861.2095599429,"source":"CELESTRAK","updated_at":"2026-09-21T09:00:33.524516Z"}}}